Location: Copeville
(33.0796°N, 96.4155°W)
Time: 06:54:31
(UTC+00:00)

Cosmos 1328 Rocket - Pass Details

Date: 12 July 2022
Orbit: 600 x 627 km, 82.5° (Epoch: 14 August)

Event Time Altitude Azimuth Distance (km) Brightness Sun altitude
Rises 07:29:47 0° 358° (N) 2,884 8.0 -33.2°
Reaches altitude 10° 07:32:04 10° 3° (N) 1,970 6.9 -33.1°
Enters shadow 07:34:03 26° 13° (NNE) 1,224 5.6 -33.0°
